Starlink 3099

operational
NORAD ID: 49446 Int'l Des: 2021-104 Owner: SPXS Country: US Constellation: starlink
LEOCIRCULAR

About Starlink 3099

Description loading...

Live Position

Loading 3D Globe...

Upcoming Passes

Altitude History

Altitude vs Time

uPlot chart will show altitude changes over time

Two-Line Element Set

1 49446U 21104AQ 25260.45918494 -.00000178 00000-0 68858-5 0 9991
2 49446 53.2166 266.7854 0001345 86.8034 273.3112 15.08833387212765
Epoch: Sep 17, 2025 • Age: 32 hours

Current Status

Altitude 540.4 km
Velocity 7.59 km/s
Sub-Earth Point 1.65°N, 18.25°W
Launch Date Nov 13, 2021
Age 3.8 years
Type internet

Technical Details

Classification Payload
Mass 290.00 kg
Dry Mass 270.00 kg
Total Mass 290.00 kg
Length 0.20 m
Diameter 2.80 m
Span 9.00 m
Shape Box + pan
Manufacturer SPXS
Bus Type Starlink
Phase Status In Orbit
Owner/State SPXS/US

Large Constellations

Loading constellations...